Reflectivity
-20 -20 -20 -20 -20 -20 -20 -20 -20 -20 -20 -20 -20 -20 -20 -20 -20 -20 -20 -20 -20 -20 -20 -20 -20 -20 -20 -20 -20 -20 -20 -20 -20 -20 -20 -20 -20 -20 -20 -20 -20 -20 -20
-20 -20 -20 -20 -20 -20 -20 -20 -20 -20 -20 -20 -20 -20 -20 -20 -20 -20 -20 -20 -20 -20 -20 -20 -20 -20 -20 -20 -20 -20 -20 -20 -20 -20 -20 -20 -20 -20 -20 -20 -20 -20 -20
-20 -20 -20 -20 -20 -20 -20 -20 -20 -20 -20 -20 -20 -20 -20 -20 -20 -20 -20 -20 -20 -20 -20 -20 -20 -20 -20 -20 -20 -20 -20 -20 -20 -20 -20 -20 -20 -20 -20 -20 -20 -20 -20
-20 -20 -20 -20 -20 -20 -20 -20 -20 -20 -20 -20 -20 -20 -20 -20 -20 -20 -20 -20 -20 -20 -20 -20 -20 -20 -20 -20 -20 -20 -20 -20 -20 -20 -20 -20 -20 -20 -20 -20 -20 -20 -20
-20 -20 -20 -20 -20 -20 -20 -20 -20 -20 -20 -20 -20 -20 -20 -20 -20 -20 -20 -20 -20 -20 -20 -20 -20 -20 -20 -20 -20 -20 -20 -20 -20 -20 -20 -20 -20 -20 -20 -20 -20 -20 -20
-20 -20 -20 -20 -20 -20 -20 -20 -20 -20 -20 -20 -20 -20 -20 -20 -20 -20 -20 -20 -20 -20 -20 -20 -20 -20 -20 -20 -20 -20 -20 -20 -20 -20 -20 -20 -20 -20 -20 -20 -20 -20 -20
-20 -20 -20 -20 -20 -20 -20 -20 -20 -20 -20 -20 -20 -20 -20 -20 -20 -20 -20 -20 -20 -20 -20 -20 -20 -20 -20 -20 -20 -20 -20 -20 -20 -20 -20 -20 -20 -20 -20 -20 -20 -20 -20
-20 -20 -20 -20 -20 -20 -20 -20 -20 -20 -20 -20 -20 -20 -20 -20 -20 -20 -20 -20 -20 -20 -20 -20 -20 -20 -20 -20 -20 -20 -20 -20 -20 -20 -20 -20 -20 -20 -20 -20 -20 -20 -20
-20 -20 -20 -20 -20 -20 -20 -20 -20 -20 -20 -20 -20 -20 -20 -20 -20 -20 -20 -20 -20 -20 -20 -20 -20 -20 -20 -20 -20 -20 -20 -20 -20 -20 -20 -20 -20 -20 -20 -20 -20 -20 -20
-20 -20 -20 -20 -20 -20 -20 -20 -20 -20 -20 -20 -20 -20 -20 -20 -20 -20 -20 -20 -20 -20 -20 -20 -20 -20 -20 -20 -20 -20 -20 -20 -20 -20 -20 -20 -20 -20 -20 -20 -20 -20 -20
-20 -20 -20 -20 -20 -20 -20 -20 -20 -20 -20 -20 -20 -20 -20 -20 -20 -20 -20 -20 -20 -20 -20 -20 -20 -20 -20 -20 -20 -20 -20 -20 -20 -20 -20 -20 -20 -20 -20 -20 -20 -20 -20
-20 -20 -20 -20 -20 -20 -20 -20 -20 -20 -20 -20 -20 -20 -20 -20 -20 -20 -20 -20 -20 -20 -20 -20 -20 -20 -20 -20 -20 -20 -20 -20 -20 -20 -20 -20 -20 -20 -20 -20 -20 -20 -20
-20 -20 -20 -20 -20 -20 -20 -20 -20 -20 -20 -20 -20 -20 -20 -20 -20 -20 -20 -20 -20 -20 -20 -20 -20 -20 -20 -20 -20 -20 -20 -20 -15 -20 -20 -20 -20 -20 -20 2 -15 -20 -20
-20 -20 -20 -20 -20 -20 -20 -20 -20 -20 -20 -20 -20 -20 -20 -20 -20 -20 -20 -20 -17 -20 -20 -20 -20 -20 2 -20 -7 -20 -16 12 1 13 -6 0 15 -20 -20 -17 -16 -16 -20
-20 -20 -20 -20 -20 -20 -20 -20 -20 -20 -20 -20 -20 -20 -20 -20 -16 -20 -20 -20 3 -16 -9 -20 -8 -20 -20 -20 -20 -20 -20 -20 -20 -20 -20 -20 -20 -20 -20 -4 16 5 6
-20 -20 -20 -20 -20 -20 -20 -20 -20 -20 -20 -20 -20 -20 -20 -20 -20 -20 -18 -20 -20 -3 -16 10 -15 -20 -20 -20 -20 -20 -20 -20 -20 -20 -20 -20 -20 -20 -20 -20 -20 -20 -17
-20 -20 -20 -20 -20 -20 -20 -20 -20 -20 -20 -20 -20 -20 -20 -20 -20 -20 -20 -20 -20 -20 -20 -20 -20 -20 -20 -20 -20 -20 -20 -20 -20 -20 -20 -20 -20 -20 -20 -20 -20 -20 -20
-20 -20 -20 -20 -20 -20 -20 -20 -20 -20 -20 -20 -20 -20 -20 -20 -20 -20 -20 -20 -20 -18 -20 -20 -20 -20 -20 -20 -20 -20 -20 -20 -20 -20 -20 -20 -20 -20 -20 -20 -20 -20 -20
-20 -20 -20 -20 -20 -20 -20 -20 -20 -20 -20 -20 -20 -20 -20 -20 -20 -20 -20 -20 -20 -20 -20 -20 -20 -20 -20 -20 -20 -20 -20 -20 -20 -20 -20 -20 -20 -20 -20 -20 -20 -20 -20
-20 -20 -20 -20 -20 -20 -20 -20 -20 -20 -20 -20 -20 -20 -20 -20 -20 -20 -20 -20 -20 -20 -20 -20 -20 -20 -20 -20 -20 -20 -20 -20 -20 -20 -20 -20 -20 -20 -20 -20 -20 -20 -20
-20 -20 -20 -20 -20 -20 -20 -20 -20 -20 -20 -20 -20 -20 -20 -20 -20 -20 -20 -20 -20 -20 -20 -20 -20 -20 -20 -20 -20 -20 -20 -20 -20 -20 -20 -20 -20 -20 -20 -20 -20 -20 -20
-20 -20 -20 -20 -20 -20 -20 -20 -20 -20 -20 -20 -20 -20 -20 -20 -20 -20 -20 -20 -20 -20 -20 -20 -20 -20 -20 -20 -20 -20 -20 -20 -20 -20 -20 -20 -20 -20 -20 -20 -20 -20 -20
-20 -20 -20 -20 -20 -20 -20 -20 -20 -6 -2 -4 -20 -20 -20 -20 -20 -20 -20 -20 -20 -20 -20 -20 -20 -20 -20 -20 -20 -20 -20 -20 -20 -20 -20 -20 -20 -20 -20 -20 -20 -20 -20
-20 -20 -20 -20 -20 -20 -20 -20 -20 -20 4 -20 -20 -20 -20 -20 -20 -20 -20 -20 -20 -20 -20 -20 -20 -20 -20 -20 -20 -20 -20 -20 -20 -20 -20 -20 -20 -20 -20 -20 -20 -20 -20
-20 -20 -20 -20 -20 -20 -20 -20 -20 -20 3 -17 -20 -20 -20 -20 -20 -20 -20 -20 -20 -20 -20 -20 -20 -20 -20 -20 -20 -20 -20 -20 -20 -20 -20 -20 -20 -20 -20 -20 -20 -20 -20
-20 -20 -20 -20 -20 -20 -20 -20 -13 -20 -20 -20 -20 -20 -20 -20 -20 -20 -20 -20 -20 -20 -20 -20 -20 -20 -20 -20 -20 -20 -20 -20 -20 -20 -20 -20 -20 -20 -20 -20 -20 -20 -20
Wind_Speed
5 8 17 17 17 16 15 13 14 14 14 14 14 14 14 14 14 14 14 14 13 13 14 13 13 13 13 13 11 10 11 10 10 9 10 12 12 15 16 14 13 10 14
16 10 16 16 16 16 16 14 13 15 14 14 13 13 13 13 13 13 13 12 12 13 13 12 12 12 12 11 9 8 8 8 8 7 6 10 9 12 13 13 12 9 12
16 13 13 15 16 16 16 15 14 15 14 14 14 13 12 12 12 12 11 12 11 12 12 11 11 11 10 9 7 8 8 7 5 3 2 2 5 11 12 9 9 9 11
17 12 12 14 16 16 16 15 14 15 14 13 13 12 12 11 11 11 11 10 10 11 11 10 10 9 7 6 6 8 9 8 6 3 4 4 4 9 10 8 8 9 7
15 13 12 15 15 15 15 14 14 14 13 13 13 12 11 10 11 10 9 9 10 10 10 8 8 7 4 4 6 8 10 11 13 9 5 9 5 8 9 7 6 7 8
15 12 13 15 16 15 15 14 13 13 13 12 12 12 11 11 10 9 9 8 9 11 9 8 6 4 3 4 6 8 9 10 11 7 4 7 6 11 10 9 6 6 6
14 13 12 14 16 17 15 14 13 13 13 11 10 10 10 10 10 8 7 7 6 10 8 6 5 3 1 3 5 7 10 11 6 4 4 3 6 11 10 9 6 4 2
15 13 11 14 15 16 15 14 12 12 13 13 12 10 8 9 8 8 7 7 7 8 7 5 4 2 1 3 5 7 9 10 8 7 7 4 10 11 10 8 6 3 0
15 13 9 9 12 14 14 13 13 12 12 12 11 10 10 8 8 8 7 6 6 6 6 5 3 3 4 6 7 8 10 12 7 4 4 3 10 10 8 8 6 3 2
12 12 10 7 7 8 9 14 14 13 12 12 12 12 10 10 9 8 7 7 7 6 6 4 4 5 5 7 8 8 9 12 7 6 3 4 10 9 7 6 5 5 5
9 11 9 8 7 8 7 10 12 14 12 11 9 10 7 4 5 7 7 9 9 9 7 6 7 7 6 7 10 9 8 4 6 4 2 8 7 6 6 5 3 4 6
12 11 11 9 9 9 8 7 7 8 6 5 5 6 4 5 5 7 8 11 10 10 9 9 9 8 6 4 4 7 3 5 5 3 3 7 9 7 6 5 6 7 8
13 10 11 11 9 9 8 6 4 4 4 4 7 7 6 5 5 6 3 3 4 7 3 5 4 4 5 5 5 4 5 5 4 3 3 9 9 6 6 8 8 8 9
14 12 12 12 11 10 6 8 8 6 6 6 7 8 5 4 5 5 4 5 5 3 5 4 3 4 5 6 4 5 3 2 2 2 1 8 8 9 10 11 10 10 10
15 14 14 13 12 11 9 8 8 8 7 8 7 8 7 6 6 5 5 6 5 4 4 4 3 3 2 3 4 3 4 4 5 3 3 5 9 10 12 15 12 10 9
18 17 16 14 13 12 7 10 9 7 8 8 5 6 10 5 4 4 3 4 3 4 4 2 2 2 2 2 4 4 5 5 6 6 4 5 9 9 11 12 14 14 12
20 19 20 14 14 12 9 8 7 7 7 5 5 6 7 6 6 5 4 4 3 3 3 1 1 2 4 4 3 5 4 3 2 3 4 3 5 9 8 6 6 8 13
20 21 20 16 16 10 7 6 5 5 7 6 5 4 7 7 7 5 4 3 4 3 2 3 3 3 3 4 3 4 4 5 7 7 6 5 4 4 6 7 7 9 7
22 21 21 20 18 16 9 5 6 6 5 5 5 5 7 6 7 6 4 4 3 3 4 4 4 4 3 4 4 4 5 5 6 5 7 7 6 5 4 7 7 6 6
23 23 21 17 17 13 9 5 4 4 4 5 6 5 7 5 7 6 4 5 5 5 4 5 5 4 3 2 3 4 4 4 4 5 5 5 5 5 5 6 4 3 5
22 22 21 20 19 15 11 10 8 9 6 5 6 8 7 6 6 7 5 5 6 5 6 5 3 4 5 3 3 4 4 3 5 5 4 4 6 6 6 5 3 3 4
24 22 22 20 21 16 13 11 6 4 4 6 5 6 6 7 7 7 7 6 6 6 6 6 5 2 1 3 2 2 4 5 4 3 3 4 5 4 6 7 7 6 4
22 21 20 21 22 18 15 10 8 5 4 4 7 5 5 7 6 7 8 7 6 6 5 5 5 5 2 3 5 4 2 3 4 3 5 4 6 4 5 5 6 7 7
22 23 24 22 22 18 19 16 19 12 11 7 7 5 6 8 7 8 7 7 7 5 6 5 4 4 4 2 2 3 2 3 1 4 4 5 5 6 7 6 6 6 8
19 22 22 23 22 19 19 18 14 14 8 6 7 11 8 6 8 8 8 8 7 5 6 7 5 5 3 3 2 0 1 1 1 2 4 4 4 4 5 5 5 7 7
17 21 21 21 21 21 19 20 20 18 12 11 11 10 9 7 6 7 8 7 7 6 7 5 5 6 4 3 1 1 1 1 3 1 2 3 4 5 3 6 5 6 6
Wind_Direction
127 151 128 133 134 130 129 130 127 118 112 112 108 101 93 92 90 87 85 89 92 91 88 87 84 79 76 74 72 70 67 59 55 67 77 78 75 72 63 62 68 68 60
135 146 130 136 136 133 135 133 129 122 121 120 112 105 102 98 93 90 91 93 94 94 93 93 88 83 77 67 51 48 54 55 52 54 80 69 71 77 69 64 68 66 66
132 133 133 137 138 137 137 137 133 130 125 123 117 112 107 103 102 102 100 99 99 101 100 99 95 89 81 58 29 12 23 30 35 18 250 35 82 80 72 68 70 69 66
127 127 138 141 141 140 139 140 137 133 128 125 120 117 113 111 109 107 106 111 106 103 101 100 96 90 73 44 16 359 359 359 354 331 256 217 119 99 85 72 73 63 76
119 133 145 144 142 141 141 140 138 131 127 126 125 122 117 115 112 112 113 121 119 108 105 103 102 101 85 41 6 352 352 350 342 345 343 170 164 117 107 74 79 68 63
128 134 148 148 142 143 143 140 137 132 128 127 126 125 126 125 124 125 129 126 131 121 121 120 118 109 81 29 359 345 340 343 337 335 357 180 135 132 125 111 86 66 51
131 139 153 150 145 143 144 141 138 131 127 124 123 128 136 137 136 135 141 148 137 126 134 137 129 123 71 356 332 330 327 332 331 328 22 157 125 134 133 124 116 106 87
138 144 153 152 146 143 143 139 133 132 132 133 134 137 138 140 142 142 139 130 128 134 143 148 152 178 250 287 297 299 303 313 331 324 348 155 153 150 148 140 139 151 210
138 139 143 150 147 140 139 136 136 137 137 137 141 146 147 156 159 158 155 152 145 145 163 162 180 225 260 274 284 301 312 314 315 308 317 220 162 162 155 154 155 176 240
136 141 145 144 138 136 145 141 140 143 146 149 155 159 163 169 175 173 168 172 173 178 190 193 214 236 260 283 291 299 304 310 302 306 317 179 175 170 166 169 182 201 223
138 146 144 150 146 144 139 147 145 149 154 159 164 168 169 176 179 179 187 190 190 190 197 209 227 240 256 273 279 276 282 284 288 311 204 200 169 174 179 184 201 244 250
156 159 156 154 158 151 155 147 146 153 154 159 169 177 181 192 184 194 205 198 199 199 202 218 234 245 247 259 270 264 259 267 281 282 155 183 196 199 196 204 219 230 247
159 161 166 161 162 167 155 157 156 154 160 175 182 188 197 197 200 199 189 182 203 210 211 223 238 239 238 229 243 222 234 247 255 324 183 200 214 218 225 229 229 239 244
164 168 171 167 170 178 150 168 168 171 178 183 194 200 174 204 196 182 169 185 199 204 215 223 228 219 240 253 205 217 265 319 328 303 313 200 225 237 244 250 241 240 246
171 170 176 172 176 185 159 175 178 179 183 191 194 202 191 196 181 188 186 186 193 185 197 197 218 197 252 355 334 300 297 296 312 319 301 299 236 245 258 270 273 292 300
174 172 163 172 178 191 168 180 180 176 177 189 185 197 199 188 158 155 130 134 146 168 156 171 167 144 245 252 272 289 278 326 320 324 325 326 324 316 300 303 336 357 5
178 169 176 162 175 182 168 164 164 177 174 189 187 214 194 158 156 149 145 133 154 121 129 186 264 11 20 0 334 2 22 356 325 336 356 351 18 22 356 355 17 16 16
173 172 172 173 159 155 162 170 176 159 171 190 185 199 158 153 137 130 129 152 168 158 149 66 51 80 61 38 7 25 9 6 8 360 0 30 10 24 22 48 10 21 37
177 172 175 174 175 167 163 168 172 178 171 191 159 154 151 144 135 140 150 176 160 101 100 110 63 71 35 10 16 8 11 12 3 15 23 15 8 36 58 44 25 14 3
172 174 173 171 170 167 165 162 169 181 187 153 149 145 142 145 146 141 152 151 103 124 93 73 77 34 74 48 14 10 336 11 45 24 11 22 19 33 31 32 30 1 1
171 168 170 163 169 164 178 177 183 196 168 149 142 146 146 152 154 144 149 117 127 116 119 108 102 74 37 7 43 339 327 80 54 20 357 12 9 356 1 359 348 334 337
171 174 168 169 167 173 177 177 163 158 153 146 137 137 147 150 148 160 141 132 143 113 98 90 85 86 55 30 121 67 353 333 341 29 342 9 356 355 1 352 342 336 305
170 173 172 173 173 173 174 159 127 122 129 138 159 141 175 153 147 129 135 129 120 118 127 126 112 104 103 358 52 134 29 279 332 338 337 1 352 353 331 329 314 314 314
174 174 173 173 174 174 171 167 162 171 176 177 163 144 154 145 140 131 128 122 125 123 114 120 118 117 116 84 13 54 115 169 234 329 336 332 333 338 326 318 315 309 315
170 174 177 175 172 170 173 168 161 168 174 151 153 153 147 142 141 137 131 123 126 120 117 125 122 108 105 126 134 15 349 339 149 201 285 313 316 309 302 312 301 315 308
172 174 173 172 173 173 173 168 170 166 159 159 161 159 158 147 144 139 133 125 127 118 120 120 113 103 118 117 104 91 124 135 299 309 288 285 254 294 301 302 317 301 317